Location: *
(49.8044°N, 4.0558°E)
Time: 00:20:11
(UTC+00:00)

STARLINK-1270 - Pass Details

Date: 09 April 2020
Orbit: 378 x 381 km, 53.0° (Epoch: 03 June)

Event Time Altitude Azimuth Distance (km) Brightness Sun altitude
Rises 19:50:24 0° 291° (WNW) 2,258 8.7 -13.1°
Reaches altitude 10° 19:52:31 10° 283° (WNW) 1,401 7.0 -13.4°
Maximum altitude 19:55:29 39° 213° (SSW) 584 3.8 -13.8°
Enters shadow 19:56:53 24° 159° (SSE) 839 4.1 -14.0°
